Change the Weather History Date:

Friday, January 25, 2013

  Actual Average Record
Temperature  
Mean Temperature 42 °F -  
Max Temperature 48 °F 44 °F 61 °F (1999)
Min Temperature 37 °F 27 °F 3 °F (1997)
Degree Days  
Heating Degree Days 22    
Moisture  
Dew Point 31 °F    
Average Humidity 62    
Maximum Humidity 70    
Minimum Humidity 46    
Precipitation  
Precipitation 0.00 in - - ()
Sea Level Pressure  
Sea Level Pressure 30.25 in    
Wind  
Wind Speed 1 mph (North)    
Max Wind Speed 6 mph    
Max Gust Speed -    
Visibility 10 miles    
Events Rain    
Averages and records for this station are not official NWS values.
T = Trace of Precipitation, MM = Missing Value Source: NWS Daily Summary

Daily Weather History Graph

Daily Weather History Graph

Search for Another Location

Airport or City:

Trip Planner

Search our weather history database for the weather conditions in past years. The results will help you decide how hot, cold, wet, or windy it might be!

Date:

Astronomy

Jan. 25, 2013 Rise Set
Actual Time 7:33 AM MST 5:43 PM MST
Civil Twilight 7:05 AM MST 6:11 PM MST
Nautical Twilight 6:33 AM MST 6:42 PM MST
Astronomical Twilight 6:03 AM MST 7:13 PM MST
Moon 4:44 PM MST (1/25) 6:14 AM MST (1/25)
Length of Visible Light 11h 06m
Length of Day
10h 10m
Waxing Gibbous, 98% of the Moon is Illuminated
Jan 25
Waxing Gibbous
Jan 26
Full
Feb 3
Last Quarter
Feb 10
New
Feb 17
First Quarter

Hourly Weather History & Observations

Time (MST) Temp. Windchill Dew Point Humidity Pressure Visibility Wind Dir Wind Speed Gust Speed Precip Events Conditions
12:53 AM 39.9 °F - 27.0 °F 60% 30.31 in 10.0 mi Calm Calm - 0.00 in Rain Light Rain
1:09 AM 39.2 °F - 28.4 °F 65% 30.31 in 10.0 mi Calm Calm - 0.00 in   Overcast
1:53 AM 39.0 °F - 30.0 °F 70% 30.30 in 10.0 mi Calm Calm - 0.00 in   Overcast
2:53 AM 39.9 °F - 30.0 °F 68% 30.30 in 7.0 mi Calm Calm - N/A   Overcast
3:53 AM 39.9 °F - 30.0 °F 68% 30.30 in 10.0 mi Calm Calm - N/A   Overcast
4:53 AM 39.0 °F - 30.0 °F 70% 30.30 in 10.0 mi Calm Calm - N/A   Overcast
5:53 AM 39.0 °F - 28.9 °F 67% 30.29 in 10.0 mi Calm Calm - N/A   Overcast
6:53 AM 37.9 °F 34.4 °F 28.9 °F 70% 30.31 in 10.0 mi South 4.6 mph - N/A   Overcast
7:53 AM 39.0 °F - 30.0 °F 70% 30.31 in 10.0 mi Calm Calm - N/A   Overcast
8:53 AM 41.0 °F - 30.9 °F 67% 30.30 in 10.0 mi Calm Calm - N/A   Overcast
9:53 AM 39.9 °F 37.8 °F 30.9 °F 70% 30.32 in 10.0 mi NNW 3.5 mph - N/A   Overcast
10:53 AM 41.0 °F 39.0 °F 30.9 °F 67% 30.33 in 10.0 mi Variable 3.5 mph - N/A   Overcast
11:53 AM 43.0 °F 40.3 °F 30.9 °F 62% 30.30 in 10.0 mi NNW 4.6 mph - N/A   Overcast
12:53 PM 45.0 °F - 30.0 °F 56% 30.25 in 10.0 mi Calm Calm - N/A   Overcast
1:53 PM 45.0 °F 42.6 °F 30.9 °F 58% 30.23 in 10.0 mi NNW 4.6 mph - N/A   Overcast
2:53 PM 46.9 °F - 30.9 °F 54% 30.19 in 10.0 mi NNE 5.8 mph - N/A   Overcast
3:53 PM 48.0 °F - 32.0 °F 54% 30.18 in 10.0 mi Calm Calm - N/A   Clear
4:53 PM 46.0 °F - 32.0 °F 58% 30.19 in 10.0 mi Calm Calm - N/A   Mostly Cloudy
5:53 PM 45.0 °F - 32.0 °F 60% 30.19 in 10.0 mi Calm Calm - N/A   Overcast
6:53 PM 45.0 °F - 32.0 °F 60% 30.18 in 10.0 mi Calm Calm - N/A   Overcast
7:53 PM 45.0 °F - 33.1 °F 63% 30.18 in 10.0 mi Calm Calm - N/A   Mostly Cloudy
8:53 PM 45.0 °F - 33.1 °F 63% 30.17 in 10.0 mi Calm Calm - N/A   Overcast
9:53 PM 44.1 °F - 33.1 °F 65% 30.17 in 10.0 mi Calm Calm - N/A   Overcast
10:53 PM 45.0 °F - 33.1 °F 63% 30.15 in 10.0 mi Calm Calm - N/A   Overcast
11:53 PM 45.0 °F - 33.1 °F 63% 30.14 in 9.0 mi Calm Calm - N/A   Overcast